{"data":{"norad_id":65626,"epoch":"2026-05-25T03:58:07.759776Z","epoch_age_seconds":74837,"freshness":"FRESH","line1":"1 65626U 25210E   26145.16536759  .00045000  00000+0  13352-2 0  9999","line2":"2 65626  53.1603 310.8834 0001931  91.4637 268.6587 15.34393773 39454","mean_motion":15.34393773,"eccentricity":0.0001931,"inclination_deg":53.1603,"raan_deg":310.8834,"arg_perigee_deg":91.4637,"mean_anomaly_deg":268.6587,"bstar":0.0013352,"rev_number":3945,"period_min":93.848138941841,"perigee_km":461.4007784017,"apogee_km":464.04271805026,"semimajor_km":6840.858748226,"source":"CELESTRAK","updated_at":"2026-05-25T13:38:20.879844Z"}}